Cloud_Cover
92 76 26 10 18 2 0 0 0 0 0 0 0 0 0 0 0 10 1 0 6 81 83 87 5 10 2 0 0 0 0 0 0 0 0 0 0 0 0 4 0 3 4 0 0 0 0
100 17 20 6 11 11 8 0 0 0 0 0 0 0 0 0 0 22 67 3 4 5 43 100 100 72 9 0 0 2 2 4 0 0 0 0 0 0 0 0 0 0 0 0 0 0 0
100 100 93 8 7 13 5 0 0 0 0 0 0 0 0 0 0 0 9 77 2 55 96 33 100 99 100 95 92 32 96 5 0 0 0 0 0 0 0 0 0 0 0 0 0 0 0
92 100 84 16 14 4 13 8 0 0 0 0 0 0 0 0 0 2 3 0 29 100 67 100 64 9 98 100 32 76 100 7 5 2 1 0 0 0 0 0 0 0 0 0 46 1 0
93 100 100 24 16 10 10 7 0 0 0 0 0 0 0 0 0 17 3 0 0 10 100 5 10 11 98 100 99 39 83 100 100 100 95 3 0 1 3 0 0 0 0 8 100 2 0
57 100 92 54 32 75 16 6 4 0 0 0 0 0 0 0 0 33 88 4 4 23 88 87 87 18 31 98 99 64 100 69 77 100 100 62 68 100 6 3 1 4 20 4 100 54 0
100 96 20 95 100 6 6 4 1 0 0 2 0 0 0 0 0 0 57 90 5 4 100 46 100 100 30 100 100 100 100 100 14 100 100 76 13 100 33 4 0 0 0 0 0 0 0
100 48 92 96 34 8 6 3 5 5 0 65 100 49 0 0 0 2 6 5 3 51 20 32 100 100 100 100 100 100 100 55 2 5 5 16 6 5 12 0 0 0 0 0 0 1 0
100 88 66 53 100 6 5 7 21 38 67 94 76 7 5 31 5 20 5 17 3 5 0 4 100 100 100 100 100 82 45 54 3 2 75 97 3 20 0 0 0 0 0 0 0 5 3
100 100 75 13 45 23 5 36 87 92 100 100 98 72 79 15 8 55 8 9 8 5 1 0 19 63 70 100 100 82 5 24 98 17 100 100 6 0 0 0 0 0 0 0 3 5 3
100 100 100 100 69 8 14 5 100 97 57 84 5 5 9 100 80 4 93 75 34 33 5 4 1 5 0 2 24 16 0 5 23 38 97 29 0 0 0 0 0 0 0 0 0 0 0
100 100 100 100 100 100 85 5 6 16 5 44 8 5 22 78 61 46 72 100 100 100 39 18 84 7 5 1 0 0 0 3 8 90 98 4 3 0 0 0 0 0 0 35 88 80 59
96 100 100 100 100 100 99 97 7 5 17 54 73 8 19 5 54 76 100 100 100 100 100 5 100 19 5 5 0 0 0 0 0 0 1 2 2 0 0 4 0 0 4 96 13 20 68
100 100 100 100 100 100 100 56 5 5 5 98 100 66 5 5 7 93 100 100 99 97 100 96 97 94 66 55 5 5 5 4 2 0 0 0 1 2 0 0 0 0 0 0 0 0 98
94 100 48 81 100 100 100 96 48 24 56 5 100 94 5 5 5 5 5 5 53 100 96 53 94 100 100 73 27 5 5 5 0 0 0 42 54 6 0 0 0 0 0 4 0 0 0
94 95 18 85 100 100 100 100 90 98 100 64 100 94 51 5 9 77 75 100 100 38 4 66 100 100 100 100 98 71 13 5 5 5 4 3 44 78 0 0 1 5 5 1 2 0 0
5 0 16 100 5 6 90 99 98 100 100 98 100 100 92 60 94 100 100 100 100 79 89 100 100 74 96 100 72 100 100 51 5 5 3 0 0 34 0 0 0 0 0 0 0 1 32
97 5 1 1 0 3 5 5 13 100 100 100 100 100 100 100 100 100 100 100 100 100 100 100 100 100 100 42 91 100 100 100 100 86 27 0 3 6 4 4 0 0 0 3 2 0 0
0 59 50 19 5 0 5 5 5 11 100 100 95 100 100 100 100 100 100 100 100 100 100 44 5 33 11 38 45 100 100 29 65 100 80 99 88 100 80 0 2 5 0 0 0 0 0
0 0 17 59 5 4 4 5 5 5 44 100 100 100 100 100 98 100 97 100 100 100 100 100 67 6 8 6 34 97 100 92 100 100 76 100 80 5 4 55 87 33 63 0 0 0 0
0 0 42 0 12 5 3 4 5 5 5 69 100 79 100 100 100 100 100 100 100 69 18 14 73 21 85 61 97 100 100 97 100 100 100 100 56 2 100 1 8 81 80 95 60 3 0
0 0 0 0 0 0 0 5 5 5 5 5 59 83 100 100 100 100 99 100 100 100 100 100 64 100 60 51 68 74 100 100 53 86 100 100 100 89 100 68 4 5 4 6 30 2 5
0 0 0 0 0 2 16 1 0 5 5 5 8 48 100 96 100 100 100 100 100 100 5 5 5 99 100 25 3 2 38 75 99 99 100 100 100 100 100 71 1 4 100 100 39 0 0
0 0 0 0 0 0 64 0 0 2 4 5 5 10 96 94 100 100 100 100 100 100 15 5 14 32 13 100 76 100 66 57 99 16 56 96 100 100 100 6 20 100 12 100 68 80 0
0 0 0 0 0 0 2 0 0 0 0 2 5 5 4 24 94 100 88 87 84 99 95 100 74 3 67 100 100 15 30 2 58 100 100 100 100 71 5 11 100 98 68 98 98 50 2
0 0 0 0 0 0 0 0 4 0 0 0 1 5 5 2 7 7 94 100 100 100 100 100 84 32 100 100 100 100 22 5 84 100 100 94 36 4 5 5 33 95 2 98 100 100 0
0 3 0 0 0 0 0 0 0 0 0 0 0 4 5 5 2 11 39 46 100 62 91 23 15 83 100 54 100 100 100 56 6 52 89 13 5 5 5 5 5 5 16 100 100 100 4
0 8 2 0 0 0 0 0 0 0 0 0 0 0 2 5 6 5 3 5 8 52 97 59 100 82 100 100 84 100 100 100 16 5 99 39 5 6 5 5 91 21 7 100 100 100 36
0 1 1 0 0 0 0 36 4 0 0 0 1 0 0 2 12 16 3 0 5 5 15 6 43 100 100 100 92 100 84 100 100 100 11 72 98 100 100 78 50 12 28 84 24 64 26